Corning, AR

1:54 PM CST on February 26, 2017 (GMT -0600)
Corning

Weather History for K4M9 - March, 2014

Change the Weather History Date:

Thursday, March 27, 2014

  Actual Average (KARG) Record (KARG)
Temperature  
Mean Temperature 52 °F -  
Max Temperature 62 °F 61 °F 80 °F (2012)
Min Temperature 44 °F 43 °F 26 °F (2001)
Degree Days  
Heating Degree Days 13    
Growing Degree Days 2 (Base 50)    
Moisture  
Dew Point 44 °F    
Average Humidity 72    
Maximum Humidity 100    
Minimum Humidity 47    
Precipitation  
Precipitation 0.00 in - - ()
Sea Level Pressure  
Sea Level Pressure 29.88 in    
Wind  
Wind Speed 15 mph (South)    
Max Wind Speed 28 mph    
Max Gust Speed 41 mph    
Visibility 9 miles    
Events Rain    
Averages and records for this station are not official NWS values.
T = Trace of Precipitation, MM = Missing Value Source: NWS Daily Summary

Daily Weather History Graph

Daily Weather History Graph

Search for Another Location

Airport or City:

Trip Planner

Search our weather history database for the weather conditions in past years. The results will help you decide how hot, cold, wet, or windy it might be!

Date:

Astronomy

Mar. 27, 2014 Rise Set
Actual Time 6:55 AM CDT 7:20 PM CDT
Civil Twilight 6:30 AM CDT 7:46 PM CDT
Nautical Twilight 5:59 AM CDT 8:16 PM CDT
Astronomical Twilight 5:29 AM CDT 8:47 PM CDT
Moon 4:41 AM CDT (3/27) 4:13 PM CDT (3/27)
Length of Visible Light 13h 16m
Length of Day
12h 24m
Waning Crescent, 13% of the Moon is Illuminated
Mar 27
Waning Crescent
Mar 30
New
Apr 7
First Quarter
Apr 15
Full
Apr 22
Last Quarter

Hourly Weather History & Observations

Time (CDT) Temp. Windchill Dew Point Humidity Pressure Visibility Wind Dir Wind Speed Gust Speed Precip Events Conditions
12:15 AM 44.6 °F 39.2 °F 37.4 °F 76% 30.06 in 10.0 mi ESE 10.4 mph - N/A   Overcast
12:35 AM 44.6 °F 40.2 °F 35.6 °F 71% 30.05 in 10.0 mi SE 8.1 mph - N/A   Overcast
12:55 AM 44.6 °F 40.7 °F 35.6 °F 71% 30.05 in 10.0 mi SE 6.9 mph - N/A   Overcast
1:15 AM 44.6 °F 40.2 °F 35.6 °F 71% 30.04 in 10.0 mi SE 8.1 mph - N/A   Overcast
1:35 AM 46.4 °F 41.1 °F 32.0 °F 57% 30.03 in 10.0 mi SSE 11.5 mph - N/A   Overcast
1:55 AM 46.4 °F 42.4 °F 32.0 °F 57% 30.02 in 10.0 mi SSE 8.1 mph - N/A   Overcast
2:15 AM 48.2 °F - 32.0 °F 54% 30.02 in 10.0 mi SSE 10.4 mph - N/A   Overcast
2:35 AM 48.2 °F - 30.2 °F 50% 30.00 in 10.0 mi SSE 13.8 mph 20.7 mph N/A   Overcast
2:55 AM 48.2 °F - 30.2 °F 50% 29.99 in 10.0 mi SSE 15.0 mph - N/A   Overcast
3:15 AM 48.2 °F - 30.2 °F 50% 29.99 in 10.0 mi SSE 13.8 mph - N/A   Overcast
3:35 AM 48.2 °F - 30.2 °F 50% 29.99 in 10.0 mi SSE 11.5 mph - N/A   Overcast
3:55 AM 48.2 °F - 30.2 °F 50% 29.97 in 10.0 mi SSE 12.7 mph - N/A   Overcast
4:15 AM 50.0 °F - 30.2 °F 47% 29.97 in 10.0 mi South 15.0 mph - N/A   Overcast
4:35 AM 50.0 °F - 32.0 °F 50% 29.96 in 10.0 mi South 13.8 mph - N/A   Overcast
4:55 AM 50.0 °F - 32.0 °F 50% 29.95 in 10.0 mi South 15.0 mph 20.7 mph N/A   Overcast
5:15 AM 48.2 °F - 32.0 °F 54% 29.95 in 10.0 mi South 11.5 mph 20.7 mph N/A   Scattered Clouds
5:35 AM 48.2 °F - 32.0 °F 54% 29.95 in 10.0 mi SSE 15.0 mph 20.7 mph N/A   Scattered Clouds
5:55 AM 48.2 °F - 32.0 °F 54% 29.95 in 10.0 mi SSE 12.7 mph - N/A   Scattered Clouds
6:15 AM 48.2 °F - 32.0 °F 54% 29.95 in 10.0 mi SSE 12.7 mph - N/A   Overcast
6:35 AM 48.2 °F - 32.0 °F 54% 29.95 in 10.0 mi SSE 12.7 mph 17.3 mph N/A   Overcast
6:55 AM 48.2 °F - 32.0 °F 54% 29.95 in 10.0 mi South 12.7 mph 18.4 mph N/A   Overcast
7:15 AM 50.0 °F - 32.0 °F 50% 29.95 in 10.0 mi South 13.8 mph - N/A   Overcast
7:35 AM 50.0 °F - 32.0 °F 50% 29.95 in 10.0 mi South 19.6 mph 26.5 mph N/A   Overcast
7:55 AM 50.0 °F - 32.0 °F 50% 29.95 in 10.0 mi South 20.7 mph 29.9 mph N/A   Overcast
8:15 AM 50.0 °F - 33.8 °F 54% 29.95 in 5.0 mi South 20.7 mph 31.1 mph N/A   Haze
8:35 AM 51.8 °F - 35.6 °F 54% 29.94 in 7.0 mi South 24.2 mph 31.1 mph N/A   Overcast
8:55 AM 51.8 °F - 35.6 °F 54% 29.94 in 8.0 mi South 23.0 mph 35.7 mph N/A   Mostly Cloudy
9:15 AM 50.0 °F - 37.4 °F 62% 29.94 in 9.0 mi South 20.7 mph 27.6 mph N/A   Overcast
9:35 AM 51.8 °F - 39.2 °F 62% 29.94 in 10.0 mi South 19.6 mph 31.1 mph N/A   Overcast
9:55 AM 53.6 °F - 39.2 °F 58% 29.94 in 10.0 mi South 23.0 mph 34.5 mph N/A   Overcast
10:15 AM 53.6 °F - 41.0 °F 62% 29.94 in 10.0 mi South 16.1 mph 28.8 mph N/A   Overcast
10:35 AM 53.6 °F - 39.2 °F 58% 29.93 in 10.0 mi South 13.8 mph - N/A   Overcast
10:55 AM 53.6 °F - 39.2 °F 58% 29.93 in 10.0 mi South 17.3 mph 24.2 mph N/A   Overcast
11:15 AM 53.6 °F - 39.2 °F 58% 29.92 in 10.0 mi South 20.7 mph 27.6 mph N/A   Overcast
11:35 AM 53.6 °F - 41.0 °F 62% 29.92 in 10.0 mi South 19.6 mph 27.6 mph N/A   Overcast
11:55 AM 55.4 °F - 41.0 °F 58% 29.91 in 10.0 mi South 19.6 mph - N/A   Overcast
12:15 PM 55.4 °F - 42.8 °F 63% 29.89 in 10.0 mi South 19.6 mph 28.8 mph N/A   Overcast
12:35 PM 55.4 °F - 44.6 °F 67% 29.88 in 10.0 mi South 19.6 mph - N/A   Overcast
12:55 PM 57.2 °F - 44.6 °F 63% 29.87 in 10.0 mi South 15.0 mph - N/A   Overcast
1:15 PM 59.0 °F - 46.4 °F 63% 29.85 in 10.0 mi South 20.7 mph 31.1 mph N/A   Overcast
1:35 PM 59.0 °F - 46.4 °F 63% 29.84 in 10.0 mi SSW 18.4 mph 23.0 mph N/A   Overcast
1:55 PM 59.0 °F - 46.4 °F 63% 29.83 in 10.0 mi SSW 18.4 mph 24.2 mph N/A   Overcast
2:15 PM 59.0 °F - 48.2 °F 67% 29.81 in 10.0 mi South 21.9 mph 28.8 mph N/A   Overcast
2:35 PM 60.8 °F - 48.2 °F 63% 29.78 in 10.0 mi South 18.4 mph 23.0 mph N/A   Overcast
2:55 PM 59.0 °F - 50.0 °F 72% 29.79 in 7.0 mi SSW 23.0 mph 26.5 mph N/A Rain Light Rain
3:15 PM 60.8 °F - 50.0 °F 68% 29.77 in 10.0 mi SSW 26.5 mph 33.4 mph N/A   Overcast
3:35 PM 60.8 °F - 50.0 °F 68% 29.79 in 7.0 mi SSW 21.9 mph 38.0 mph N/A   Overcast
3:55 PM 57.2 °F - 53.6 °F 88% 29.78 in 1.5 mi SSW 24.2 mph 41.4 mph N/A   Haze
4:15 PM 57.2 °F - 55.4 °F 94% 29.78 in 1.2 mi South 26.5 mph 32.2 mph N/A   Clear
4:35 PM 57.2 °F - 55.4 °F 94% 29.77 in 3.0 mi South 21.9 mph 31.1 mph N/A   Scattered Clouds
4:55 PM 57.2 °F - 57.2 °F 100% 29.77 in 5.0 mi South 20.7 mph 26.5 mph N/A   Mostly Cloudy
5:15 PM 57.2 °F - 55.4 °F 94% 29.76 in 10.0 mi South 20.7 mph 27.6 mph N/A   Scattered Clouds
5:35 PM 57.2 °F - 55.4 °F 94% 29.75 in 5.0 mi South 21.9 mph 26.5 mph N/A   Mostly Cloudy
5:55 PM 57.2 °F - 55.4 °F 94% 29.75 in 3.0 mi South 25.3 mph 28.8 mph N/A   Scattered Clouds
6:15 PM 57.2 °F - 57.2 °F 100% 29.75 in 6.0 mi South 21.9 mph 28.8 mph N/A   Mostly Cloudy
6:35 PM 57.2 °F - 57.2 °F 100% 29.75 in 1.8 mi South 19.6 mph 28.8 mph N/A Rain Light Rain
6:55 PM 57.2 °F - 57.2 °F 100% 29.75 in 1.5 mi SSE 21.9 mph 27.6 mph N/A Rain Light Rain
7:15 PM 57.2 °F - 57.2 °F 100% 29.75 in 2.0 mi South 21.9 mph 26.5 mph N/A Rain Light Rain
7:35 PM 57.2 °F - 57.2 °F 100% 29.76 in 5.0 mi South 17.3 mph 23.0 mph N/A   Mostly Cloudy
7:55 PM 57.2 °F - 57.2 °F 100% 29.74 in 9.0 mi South 19.6 mph 26.5 mph N/A   Mostly Cloudy
8:15 PM 57.2 °F - 57.2 °F 100% 29.75 in 10.0 mi South 18.4 mph - N/A   Overcast
8:35 PM 57.2 °F - 57.2 °F 100% 29.76 in 10.0 mi South 15.0 mph 20.7 mph N/A   Overcast
8:55 PM 57.2 °F - 57.2 °F 100% 29.77 in 10.0 mi SSW 16.1 mph 20.7 mph N/A   Overcast
9:15 PM 59.0 °F - 59.0 °F 100% 29.78 in 9.0 mi SSW 18.4 mph 24.2 mph N/A   Overcast
9:35 PM 59.0 °F - 59.0 °F 100% 29.77 in 10.0 mi South 21.9 mph 29.9 mph N/A   Overcast
9:55 PM 59.0 °F - 59.0 °F 100% 29.77 in 10.0 mi South 25.3 mph 31.1 mph N/A   Overcast
10:15 PM 60.8 °F - 59.0 °F 94% 29.76 in 10.0 mi South 24.2 mph 33.4 mph N/A   Overcast
10:35 PM 60.8 °F - 59.0 °F 94% 29.76 in 10.0 mi South 25.3 mph 38.0 mph N/A   Overcast
10:55 PM 60.8 °F - 59.0 °F 94% 29.77 in 10.0 mi SSW 23.0 mph 38.0 mph N/A   Overcast
11:15 PM 60.8 °F - 59.0 °F 94% 29.77 in 10.0 mi SSW 24.2 mph 35.7 mph N/A   Overcast
11:35 PM 60.8 °F - 59.0 °F 94% 29.77 in 10.0 mi South 27.6 mph 39.1 mph N/A   Overcast
11:55 PM 62.6 °F - 60.8 °F 94% 29.77 in 10.0 mi SSW 25.3 mph 41.4 mph N/A   Overcast